EW5303 Weather Reports


time (UTC)temp
F
wind
direction
speed
knots
gust
knots
rain 1hr
in
rain 24hr
in
rain mn
in
humidity
%
barometer
mb
20260502194504 61 74 0.0 3.5 0.00 0.00 0.00 52 1011.0
20260502193004 61 115 0.0 1.7 0.00 0.00 0.00 53 1011.3
20260502191503 60 61 0.0 1.7 0.00 0.00 0.00 47 1011.4
20260502190004 60 75 0.0 1.7 0.00 0.00 0.00 48 1011.5
20260502184503 60 94 0.0 1.7 0.00 0.00 0.00 51 1011.6
20260502183004 59 1 0.0 3.5 0.00 0.00 0.00 52 1011.7
20260502181503 59 46 0.0 3.5 0.00 0.00 0.00 49 1011.8
20260502163003 56 102 0.0 3.5 0.00 0.00 0.00 55 1013.3
20260502161503 56 17 0.0 4.3 0.00 0.00 0.00 59 1013.3
20260502151507 56 67 0.0 1.7 0.00 0.00 0.00 60 1013.1
20260502123006 53 0 0.0 0.0 0.00 0.00 0.00 83 1012.9
20260502121506 52 0 0.0 0.0 0.00 0.00 0.00 86 1012.5
20260502113006 50 0 0.0 0.0 0.00 0.00 0.00 89 1012.3
20260502111506 49 0 0.0 0.0 0.00 0.00 0.00 89 1012.3
20260502110006 49 0 0.0 0.0 0.00 0.00 0.00 89 1012.4
20260502104506 49 0 0.0 0.0 0.00 0.00 0.00 90 1012.3
20260502103006 49 0 0.0 0.0 0.00 0.00 0.00 89 1012.4
20260502101506 49 0 0.0 0.0 0.00 0.00 0.00 91 1012.4
20260502091505 49 277 0.0 1.7 0.00 0.00 0.00 92 1012.3
20260502071506 48 0 0.0 0.0 0.00 0.00 0.00 93 1011.2
20260502070027 48 0 0.0 0.0 0.00 0.00 0.00 93 1011.2
20260502064527 48 347 0.0 1.7 0.00 0.00 0.00 93 1011.2
20260502063027 47 0 0.0 0.0 0.00 0.00 0.00 93 1011.2
20260502061505 47 0 0.0 0.0 0.00 0.00 0.00 92 1011.5
20260502060005 48 0 0.0 0.0 0.00 0.00 0.00 92 1011.4
20260502054505 48 0 0.0 0.0 0.00 0.00 0.00 91 1011.5
20260502053005 48 0 0.0 0.0 0.00 0.00 0.00 91 1011.9
20260502051526 48 0 0.0 0.0 0.00 0.00 0.00 90 1012.0
20260502050026 49 0 0.0 0.0 0.00 0.00 0.00 90 1011.9
20260502044505 49 0 0.0 0.0 0.00 0.00 0.00 90 1012.0
20260502043005 50 0 0.0 0.0 0.00 0.00 0.00 89 1012.3
20260502041505 50 0 0.0 0.0 0.00 0.00 0.00 87 1012.1
20260502040005 50 0 0.0 0.0 0.00 0.00 0.00 86 1012.2
20260502034526 51 0 0.0 0.0 0.00 0.00 0.00 85 1012.2
20260502033005 52 0 0.0 0.0 0.00 0.00 0.00 84 1012.0
20260502031505 52 0 0.0 0.0 0.00 0.00 0.00 84 1012.2
20260502030026 53 0 0.0 0.0 0.00 0.00 0.00 83 1012.1
20260502024505 53 0 0.0 0.0 0.00 0.00 0.00 82 1012.1
20260502023005 54 0 0.0 0.0 0.00 0.00 0.00 80 1012.0
20260502021505 54 0 0.0 0.0 0.00 0.00 0.00 79 1011.8
20260502020026 55 9 0.0 1.7 0.00 0.00 0.00 77 1011.8
20260502014526 56 0 0.0 0.0 0.00 0.00 0.00 76 1011.9
20260502013025 57 24 0.0 1.7 0.00 0.00 0.00 74 1011.4
20260502011504 58 70 0.0 1.7 0.00 0.00 0.00 72 1011.1
20260502010005 58 147 0.0 1.7 0.00 0.00 0.00 70 1010.9
20260502004505 59 294 0.0 3.5 0.00 0.00 0.00 69 1010.7
20260502003004 59 116 0.0 7.8 0.00 0.00 0.00 69 1010.5
20260502001505 59 240 0.0 1.7 0.00 0.00 0.00 69 1009.9
20260502000004 60 14 0.0 1.7 0.00 0.00 0.00 69 1009.8
20260501234504 61 0 0.0 0.0 0.00 0.00 0.00 67 1009.9
20260501233004 62 0 0.0 0.0 0.00 0.00 0.00 63 1009.9
20260501231504 64 0 0.0 0.0 0.00 0.00 0.00 63 1009.7
20260501230025 65 0 0.0 0.0 0.00 0.00 0.00 60 1009.9
20260501224504 66 88 0.0 1.7 0.00 0.00 0.00 57 1010.0
20260501223004 67 79 0.0 1.7 0.00 0.00 0.00 54 1010.1
20260501221504 68 230 0.0 3.5 0.00 0.00 0.00 49 1010.3
20260501220004 68 126 0.0 1.7 0.00 0.00 0.00 51 1010.3
20260501214504 69 214 0.0 3.5 0.00 0.00 0.00 48 1010.4
20260501213004 69 98 0.0 8.7 0.00 0.00 0.00 49 1010.5
20260501211525 69 125 0.0 4.3 0.00 0.00 0.00 48 1010.6
20260501210025 71 91 1.7 8.7 0.00 0.00 0.00 44 1010.6
20260501204504 71 239 1.7 3.5 0.00 0.00 0.00 43 1010.7
20260501203004 71 113 1.7 6.1 0.00 0.00 0.00 41 1010.6
20260501201503 71 206 1.7 6.1 0.00 0.00 0.00 42 1010.9
20260501200004 71 285 1.7 6.1 0.00 0.00 0.00 43 1011.3